Location: Cluj-Napoca
(46.7712°N, 23.6236°E)
Time: 17:56:51
(UTC+03:00)

ISS - Pass Details

Date: 26 May 2020
Orbit: 417 x 420 km, 51.6° (Epoch: 26 May)

Event Time Altitude Azimuth Distance (km) Brightness Sun altitude
Rises 22:33:42 0° 293° (WNW) 2,367 1.3 -12.0°
Reaches altitude 10° 22:35:51 10° 300° (WNW) 1,502 0.3 -12.2°
Maximum altitude 22:39:07 46° 15° (NNE) 572 -2.8 -12.6°
Enters shadow 22:42:11 11° 90° (E) 1,419 -1.4 -12.9°
